Meteo pe oră la Bolshoe Chervonnoe

Astăzi, 18 Mai, Marţi

Timp Temperatura Precipitaţii Vânt Presiune Umiditate
00:00 +17°C° 0.1 mm 3 m/s 732 mmHg 93%
01:00 +15°C° 0.1 mm 4 m/s 732 mmHg 94%
02:00 +15°C° 0.1 mm 4 m/s 732 mmHg 95%
03:00 +15°C° 0.1 mm 4 m/s 732 mmHg 96%
04:00 +17°C° 0.1 mm 4 m/s 732 mmHg 96%
05:00 +17°C° 0.1 mm 4 m/s 733 mmHg 96%
06:00 +17°C° 0 mm 5 m/s 733 mmHg 93%
07:00 +17°C° 0 mm 5 m/s 733 mmHg 89%
08:00 +19°C° 0 mm 6 m/s 733 mmHg 85%
09:00 +20°C° 0 mm 5 m/s 734 mmHg 80%
10:00 +21°C° 0 mm 5 m/s 734 mmHg 75%
11:00 +21°C° 0 mm 4 m/s 734 mmHg 70%
12:00 +20°C° 1.3 mm 4 m/s 734 mmHg 78%
13:00 +18°C° 1.3 mm 4 m/s 734 mmHg 85%
14:00 +16°C° 1.3 mm 3 m/s 733 mmHg 93%
15:00 +17°C° 0.3 mm 3 m/s 733 mmHg 89%
16:00 +18°C° 0.3 mm 3 m/s 733 mmHg 85%
17:00 +19°C° 0.3 mm 3 m/s 733 mmHg 81%
18:00 +18°C° 2 mm 2 m/s 732 mmHg 86%
19:00 +17°C° 2 mm 2 m/s 732 mmHg 92%
20:00 +16°C° 2 mm 2 m/s 731 mmHg 97%
21:00 +16°C° 1 mm 2 m/s 732 mmHg 96%
22:00 +16°C° 1 mm 3 m/s 732 mmHg 95%
23:00 +14°C° 1 mm 3 m/s 732 mmHg 94%

Mâine, 19 Mai, Miercuri

Timp Temperatura Precipitaţii Vânt Presiune Umiditate
00:00 +14°C° 0 mm 3 m/s 732 mmHg 95%
01:00 +13°C° 0 mm 3 m/s 732 mmHg 96%
02:00 +13°C° 0 mm 3 m/s 732 mmHg 97%
03:00 +13°C° 0.1 mm 3 m/s 732 mmHg 97%
04:00 +13°C° 0.1 mm 3 m/s 732 mmHg 97%
05:00 +13°C° 0.1 mm 3 m/s 732 mmHg 98%
06:00 +14°C° 0 mm 4 m/s 733 mmHg 93%
07:00 +15°C° 0 mm 4 m/s 733 mmHg 89%
08:00 +16°C° 0 mm 5 m/s 733 mmHg 85%
09:00 +16°C° 0.3 mm 5 m/s 733 mmHg 82%
10:00 +17°C° 0.3 mm 5 m/s 733 mmHg 79%
11:00 +17°C° 0.3 mm 5 m/s 734 mmHg 76%
12:00 +19°C° 0.1 mm 5 m/s 734 mmHg 72%
13:00 +20°C° 0.1 mm 4 m/s 734 mmHg 67%
14:00 +21°C° 0.1 mm 4 m/s 734 mmHg 63%
15:00 +20°C° 0.3 mm 4 m/s 734 mmHg 68%
16:00 +20°C° 0.3 mm 3 m/s 734 mmHg 73%
17:00 +19°C° 0.3 mm 3 m/s 734 mmHg 78%
18:00 +18°C° 0.8 mm 2 m/s 734 mmHg 82%
19:00 +17°C° 0.8 mm 2 m/s 734 mmHg 86%
20:00 +15°C° 0.8 mm 2 m/s 734 mmHg 90%
21:00 +15°C° 0.7 mm 1 m/s 734 mmHg 92%
22:00 +15°C° 0.7 mm 1 m/s 734 mmHg 94%
23:00 +15°C° 0.7 mm 1 m/s 734 mmHg 96%

Poimâine, 20 Mai, Joi

Timp Temperatura Precipitaţii Vânt Presiune Umiditate
00:00 +14°C° 0.7 mm 1 m/s 733 mmHg 96%
01:00 +14°C° 0.7 mm 2 m/s 733 mmHg 97%
02:00 +14°C° 0.7 mm 2 m/s 732 mmHg 98%
03:00 +14°C° 0.4 mm 2 m/s 732 mmHg 98%
04:00 +14°C° 0.4 mm 2 m/s 732 mmHg 97%
05:00 +13°C° 0.4 mm 3 m/s 732 mmHg 97%
06:00 +13°C° 0.2 mm 3 m/s 731 mmHg 96%
07:00 +13°C° 0.2 mm 3 m/s 731 mmHg 95%
08:00 +14°C° 0.2 mm 3 m/s 731 mmHg 93%
09:00 +13°C° 0.7 mm 3 m/s 731 mmHg 94%
10:00 +13°C° 0.7 mm 4 m/s 731 mmHg 95%
11:00 +12°C° 0.7 mm 4 m/s 731 mmHg 95%
12:00 +12°C° 1.4 mm 4 m/s 731 mmHg 95%
13:00 +12°C° 1.4 mm 5 m/s 731 mmHg 95%
14:00 +10°C° 1.4 mm 5 m/s 731 mmHg 95%
15:00 +10°C° 0.2 mm 5 m/s 731 mmHg 95%
16:00 +9°C° 0.2 mm 5 m/s 731 mmHg 95%
17:00 +8°C° 0.2 mm 6 m/s 731 mmHg 95%
18:00 +8°C° 0.2 mm 6 m/s 731 mmHg 95%
19:00 +8°C° 0.2 mm 5 m/s 732 mmHg 95%
20:00 +7°C° 0.2 mm 5 m/s 732 mmHg 95%
21:00 +7°C° 0.4 mm 5 m/s 732 mmHg 95%
22:00 +7°C° 0.4 mm 5 m/s 732 mmHg 95%
23:00 +7°C° 0.4 mm 5 m/s 732 mmHg 95%

21 Mai, Vineri

Timp Temperatura Precipitaţii Vânt Presiune Umiditate
00:00 +7°C° 0.7 mm 6 m/s 733 mmHg 95%
01:00 +6°C° 0.7 mm 7 m/s 733 mmHg 94%
02:00 +6°C° 0.7 mm 8 m/s 734 mmHg 93%
03:00 +6°C° 0.2 mm 8 m/s 734 mmHg 93%
04:00 +6°C° 0.2 mm 8 m/s 735 mmHg 92%
05:00 +6°C° 0.2 mm 8 m/s 735 mmHg 92%
06:00 +8°C° 0 mm 7 m/s 736 mmHg 89%
07:00 +8°C° 0 mm 7 m/s 737 mmHg 87%
08:00 +8°C° 0 mm 7 m/s 738 mmHg 85%
09:00 +9°C° 0 mm 7 m/s 738 mmHg 77%
10:00 +11°C° 0 mm 7 m/s 739 mmHg 68%
11:00 +12°C° 0 mm 7 m/s 740 mmHg 60%
12:00 +14°C° 0 mm 6 m/s 740 mmHg 58%
13:00 +15°C° 0 mm 6 m/s 740 mmHg 56%
14:00 +15°C° 0 mm 6 m/s 741 mmHg 55%
15:00 +15°C° 0 mm 5 m/s 741 mmHg 59%
16:00 +14°C° 0 mm 4 m/s 741 mmHg 63%
17:00 +14°C° 0 mm 4 m/s 742 mmHg 67%
18:00 +13°C° 0 mm 3 m/s 742 mmHg 72%
19:00 +11°C° 0 mm 3 m/s 742 mmHg 77%
20:00 +10°C° 0 mm 3 m/s 743 mmHg 82%
21:00 +9°C° 0 mm 3 m/s 743 mmHg 84%
22:00 +8°C° 0 mm 2 m/s 743 mmHg 86%
23:00 +7°C° 0 mm 2 m/s 743 mmHg 88%

22 Mai, Sâmbătă

Timp Temperatura Precipitaţii Vânt Presiune Umiditate
00:00 +7°C° 0 mm 2 m/s 744 mmHg 88%
01:00 +6°C° 0 mm 2 m/s 744 mmHg 88%
02:00 +6°C° 0 mm 2 m/s 744 mmHg 89%
03:00 +7°C° 0 mm 1 m/s 744 mmHg 87%
04:00 +8°C° 0 mm 1 m/s 744 mmHg 85%
05:00 +8°C° 0 mm 1 m/s 744 mmHg 83%
06:00 +10°C° 0 mm 1 m/s 744 mmHg 77%
07:00 +12°C° 0 mm 1 m/s 745 mmHg 70%
08:00 +13°C° 0 mm 0 m/s 745 mmHg 64%
09:00 +15°C° 0 mm 1 m/s 745 mmHg 60%
10:00 +16°C° 0 mm 1 m/s 745 mmHg 56%
11:00 +18°C° 0 mm 1 m/s 745 mmHg 52%
12:00 +18°C° 0 mm 1 m/s 744 mmHg 51%
13:00 +19°C° 0 mm 1 m/s 744 mmHg 50%
14:00 +19°C° 0 mm 1 m/s 744 mmHg 49%
15:00 +19°C° 0 mm 1 m/s 744 mmHg 51%
16:00 +19°C° 0 mm 1 m/s 743 mmHg 54%
17:00 +19°C° 0 mm 1 m/s 743 mmHg 56%
18:00 +18°C° 0 mm 1 m/s 743 mmHg 61%
19:00 +15°C° 0 mm 1 m/s 743 mmHg 67%
20:00 +13°C° 0 mm 1 m/s 743 mmHg 72%
21:00 +12°C° 0 mm 2 m/s 743 mmHg 78%
22:00 +12°C° 0 mm 2 m/s 743 mmHg 84%
23:00 +10°C° 0 mm 2 m/s 743 mmHg 90%

23 Mai, Duminică

Timp Temperatura Precipitaţii Vânt Presiune Umiditate
00:00 +9°C° 0 mm 2 m/s 742 mmHg 91%
01:00 +9°C° 0 mm 2 m/s 742 mmHg 92%
02:00 +8°C° 0 mm 2 m/s 742 mmHg 93%
03:00 +9°C° 0 mm 2 m/s 742 mmHg 92%
04:00 +9°C° 0 mm 2 m/s 742 mmHg 91%
05:00 +10°C° 0 mm 1 m/s 741 mmHg 90%
06:00 +10°C° 0 mm 2 m/s 741 mmHg 86%
07:00 +13°C° 0 mm 2 m/s 741 mmHg 82%
08:00 +14°C° 0 mm 2 m/s 740 mmHg 78%
09:00 +15°C° 0 mm 2 m/s 740 mmHg 75%
10:00 +16°C° 0 mm 2 m/s 740 mmHg 72%
11:00 +17°C° 0 mm 2 m/s 739 mmHg 70%
12:00 +18°C° 0.1 mm 3 m/s 739 mmHg 67%
13:00 +18°C° 0.1 mm 4 m/s 738 mmHg 65%
14:00 +19°C° 0.1 mm 5 m/s 738 mmHg 63%
15:00 +16°C° 0.3 mm 5 m/s 738 mmHg 72%
16:00 +14°C° 0.3 mm 5 m/s 738 mmHg 81%
17:00 +12°C° 0.3 mm 5 m/s 738 mmHg 91%
18:00 +12°C° 0 mm 5 m/s 738 mmHg 91%
19:00 +12°C° 0 mm 5 m/s 739 mmHg 92%
20:00 +11°C° 0 mm 4 m/s 739 mmHg 93%
21:00 +11°C° 0 mm 4 m/s 740 mmHg 93%
22:00 +10°C° 0 mm 4 m/s 740 mmHg 94%
23:00 +10°C° 0 mm 4 m/s 741 mmHg 94%
Arată mai mult

Formular de consimțământ

Meteoprog și furnizorii noștri de servicii pot stoca și accesa date personale, precum cookies, identificatori de dispozitiv sau alte tehnologii similare pe dispozitivul dumneavoastră și procesa astfel de date pentru a personaliza conținutul și reclamele, dar și pentru a oferi caracteristici de social media și pentru a analiza traficul.

  • Stocarea și/sau accesarea informațiilor pe dispozitivul dumneavoastră

    Cookies, identificatori de dispozitiv sau alte informații pot fi stocate sau accesate pe dispozitiv în scopurile indicate mai sus.

  • Reclame și conținut personalizat, evaluarea reclamelor și a conținutului, informații despre audiențe și dezvoltarea produselor

    Reclamele și conținutul pot fi personalizate pe baza unui profil. Pot fi adăugate date suplimentare pentru a personaliza mai bine reclamele și conținutul. Performanța reclamelor și conținutului poate fi măsurată. Pot fi obținute informații despre utilizatorii care au văzut reclamele și conținutul. Aceste date pot fi utilizate pentru a dezvolta sau îmbunătăți experiența utilizatorilor, sistemele și software-ul.

Dând clic pe ‘Sunt de acord’, permiteți utilizarea cookie-urilor menționate, a identificatorilor de dispozitiv, balizelor web sau altor tehnologii similare. Setările pot fi modificate din browser-ul dispozitivului dumneavoastră.

În anumite scopuri, interesele legitime pot prima asupra consimțământului. Puteți citi mai multe informații în acest sens în Politica privind Confidențialitatea Datelor și Cookie.